Voltar ao catálogo

SL-8 DEB

AtivoLEO
NORAD 1591·DEBRIS·🇷🇺 Russia

Lançado Sep 18, 1965 de Baikonur Cosmodrome

Loading…

Próximas Passagens (próximas 24 horas)

TLE

AtualizadoSource: Space-Track

Época: Sep 14, 2026, 01:09 UTC

1 01591U 65073H   26257.04861042 -.00000051  00000-0  29990-3 0  9993
2 01591  56.0546 272.0086 0152444  86.4666 304.9211 12.43054844759775

Acompanhe SL-8 DEB em tempo real com AllMySat

Download on the App Store